Location: Newark
(35.8833°N, 14.5000°E)
Time: 03:53:51
(UTC+00:00)

UNISAT 6 - Pass Details

Date: 21 May 2019
Orbit: 606 x 690 km, 97.8° (Epoch: 19 June)

Event Time Altitude Azimuth Distance (km) Brightness Sun altitude
Rises 19:09:19 0° 28° (NNE) 2,926 ? -12.0°
Reaches altitude 10° 19:11:57 10° 43° (NE) 1,999 ? -12.4°
Maximum altitude 19:15:21 22° 95° (E) 1,351 ? -13.0°
Enters shadow 19:16:29 20° 118° (ESE) 1,433 ? -13.1°
